Location: NJAA Observatory
(40.6819°N, 74.8979°W)
Time: 00:33:29
(UTC-04:00)

Iridium 56 - Visible Passes

Search period start: 01 April 2015 00:00
Search period end: 11 April 2015 00:00
Orbit: 776 x 779 km, 86.4° (Epoch: 31 March)

Date Brightness Start Highest point End Pass type
(mag) Time Alt. Az. Time Alt. Az. Time Alt. Az.
01 Apr 5.6 21:36:29 10° N 21:41:15 60° ENE 21:41:15 60° ENE visible
01 Apr 8.0 23:19:02 10° NW 23:21:45 15° WNW 23:21:45 15° WNW visible
02 Apr 6.2 21:03:17 10° NNE 21:08:00 34° E 21:08:15 34° E visible
02 Apr 7.3 22:44:16 10° NNW 22:48:37 26° W 22:48:44 26° W visible
03 Apr 6.9 20:30:34 10° NNE 20:34:08 19° ENE 20:35:16 18° E visible
03 Apr 6.2 22:10:13 10° NNW 22:15:14 48° W 22:15:47 46° WSW visible
04 Apr 7.5 20:00:07 10° ENE 20:00:07 10° ENE 20:00:29 10° ENE visible
04 Apr 5.4 21:36:31 10° N 21:41:46 89° WSW 21:42:50 58° S visible
05 Apr 5.7 21:03:06 10° N 21:08:10 49° E 21:09:56 35° SE visible
05 Apr 7.8 22:44:56 10° NW 22:48:33 19° W 22:50:26 15° WSW visible
06 Apr 6.5 20:30:03 10° NNE 20:34:25 27° ENE 20:37:03 18° ESE visible
06 Apr 7.0 22:10:33 10° NNW 22:15:13 33° W 22:17:34 23° SW visible
07 Apr 7.2 19:57:40 10° NE 20:00:30 15° ENE 20:03:34 10° ESE visible
07 Apr 5.9 21:36:38 10° N 21:41:49 62° W 21:44:44 25° SSW visible
08 Apr 5.4 21:03:03 10° N 21:08:17 72° E 21:11:57 20° SSE visible
08 Apr 8.3 22:46:05 10° NW 22:48:27 13° WNW 22:50:30 10° WSW visible
09 Apr 6.0 20:29:46 10° NNE 20:34:37 38° E 20:39:13 11° SSE visible
09 Apr 7.6 22:11:02 10° NNW 22:15:10 23° W 22:19:09 10° SW visible
10 Apr 6.8 19:56:55 10° NNE 20:00:48 21° ENE 20:04:50 10° SE visible
10 Apr 6.6 21:36:52 10° NNW 21:41:47 42° W 21:46:40 10° SSW visible
